Weather History for Veracruz Airport, Mexico

Change the Weather History Date:

Saturday, February 9, 2013

  Actual Average Record
Temperature  
Mean Temperature 75 °F -  
Max Temperature 86 °F 81 °F 89 °F (1999)
Min Temperature 64 °F 64 °F 57 °F (1998)
Cooling Degree Days 10    
Growing Degree Days 25 (Base 50)    
Moisture  
Dew Point 68 °F    
Average Humidity 80    
Maximum Humidity 100    
Minimum Humidity 58    
Precipitation  
Precipitation 0.00 in - - ()
Sea Level Pressure  
Sea Level Pressure 29.96 in    
Wind  
Wind Speed 4 mph ()    
Max Wind Speed 14 mph    
Max Gust Speed -    
Visibility 4.1 miles    
Events Fog    
Averages and records for this station are not official NWS values.
T = Trace of Precipitation, MM = Missing Value Source: Averaged Metar Reports

Daily Weather History Graph

Daily Weather History Graph

Search for Another Location

Airport:

Trip Planner

Search our weather history database for the weather conditions in past years. The results will help you decide how hot, cold, wet, or windy it might be!

Date:

Astronomy

Feb. 09, 2013 Rise Set
Actual Time 6:55 AM CST 6:22 PM CST
Civil Twilight 6:33 AM CST 6:44 PM CST
Nautical Twilight 6:07 AM CST 7:10 PM CST
Astronomical Twilight 5:41 AM CST 7:36 PM CST
Moon 6:09 AM CST (2/9) 6:00 PM CST (2/9)
Length of Visible Light 12h 11m
Length of Day
11h 26m
Waning Crescent, 0% of the Moon is Illuminated
Feb 9
Waning Crescent
Feb 10
New
Feb 17
First Quarter
Feb 25
Full
Mar 4
Last Quarter

Hourly Weather History & Observations

Time (CST) Temp. Heat Index Dew Point Humidity Pressure Visibility Wind Dir Wind Speed Gust Speed Precip Events Conditions
4:50 AM 68.0 °F - 66.2 °F 94% 30.00 in 0.8 mi Calm Calm - N/A   Clear
5:44 AM 66.2 °F - 66.2 °F 100% 29.97 in 0.5 mi Calm Calm - N/A Fog Shallow Fog
6:43 AM 64.4 °F - 62.6 °F 94% 30.02 in 0.0 mi WSW 2.3 mph - N/A Fog Fog
7:15 AM 66.2 °F - 64.4 °F 94% 30.03 in 0.1 mi WNW 3.5 mph - N/A Fog Fog
7:45 AM 68.0 °F - 66.2 °F 94% 30.03 in 1.0 mi NW 2.3 mph - N/A   Clear
7:55 AM 69.8 °F - 68.0 °F 94% 30.04 in 1.5 mi Calm Calm - N/A   Clear
8:34 AM 71.6 °F - 69.8 °F 94% 30.04 in 3.0 mi Calm Calm - N/A   Clear
8:43 AM 71.6 °F - 69.8 °F 94% 30.01 in 3.0 mi West 3.5 mph - N/A   Clear
9:42 AM 77.0 °F - 69.8 °F 78% 30.04 in 5.0 mi South 3.5 mph - N/A   Scattered Clouds
10:42 AM 80.6 °F 83.2 °F 68.0 °F 65% 30.03 in 6.0 mi SSE 5.8 mph - N/A   Partly Cloudy
11:44 AM 82.4 °F 84.6 °F 66.2 °F 58% 29.99 in 6.0 mi SSE 10.4 mph - N/A   Partly Cloudy
12:46 PM 86.0 °F 90.4 °F 69.8 °F 58% 29.96 in 6.0 mi ESE 6.9 mph - N/A   Partly Cloudy
1:45 PM 82.4 °F 86.3 °F 69.8 °F 66% 29.92 in 6.0 mi ESE 12.7 mph - N/A   Partly Cloudy
2:44 PM 82.4 °F 85.4 °F 68.0 °F 62% 29.88 in 6.0 mi ESE 11.5 mph - N/A   Partly Cloudy
3:44 PM 82.4 °F 85.4 °F 68.0 °F 62% 29.88 in 7.0 mi ESE 13.8 mph - N/A   Clear
4:41 PM 80.6 °F 83.2 °F 68.0 °F 65% 29.87 in 6.0 mi East 10.4 mph - N/A   Clear
5:43 PM 77.0 °F - 69.8 °F 78% 29.83 in 6.0 mi ESE 10.4 mph - N/A   Clear
6:42 PM 75.2 °F - 69.8 °F 83% 29.88 in 5.0 mi SE 9.2 mph - N/A   Clear
7:41 PM 75.2 °F - 69.8 °F 83% 29.89 in 6.0 mi ESE 8.1 mph - N/A   Clear
8:41 PM 75.2 °F - 69.8 °F 83% 29.86 in 6.0 mi SE 9.2 mph - N/A   Clear
9:41 PM 73.4 °F - 69.8 °F 88% 29.93 in 6.0 mi SE 6.9 mph - N/A   Clear